When you browse on this site, cookies collect data to enhance your experience and personalize the content and advertising you see.
Visit our Privacy Policy to learn more. By continuing to use the site, you agree to this use of cookies and data.
  • In Portugal
  • List of Countries
  • For 7 days
  • Water Temperature
  • Weather Map
  • Weather Widgets
  • user-avatar
    Login

    Hourly Weather Babeevo

    Today, 23 September, Monday

    Time Temperature Precipitation Wind Pressure Humidity
    00:00 +1°C° 0.3 mm 6 mps 737 mmHg 92%
    01:00 +1°C° 0 mm 6 mps 738 mmHg 92%
    02:00 +1°C° 0 mm 6 mps 739 mmHg 93%
    03:00 +1°C° 0 mm 4 mps 740 mmHg 92%
    04:00 +1°C° 0.1 mm 5 mps 741 mmHg 91%
    05:00 +1°C° 0.1 mm 5 mps 742 mmHg 90%
    06:00 +1°C° 0.1 mm 6 mps 742 mmHg 88%
    07:00 +1°C° 0 mm 6 mps 743 mmHg 85%
    08:00 +1°C° 0 mm 6 mps 744 mmHg 82%
    09:00 +2°C° 0 mm 5 mps 745 mmHg 80%
    10:00 +2°C° 0 mm 6 mps 745 mmHg 82%
    11:00 +1°C° 0 mm 6 mps 745 mmHg 84%
    12:00 +1°C° 0 mm 6 mps 746 mmHg 85%
    13:00 +2°C° 0.1 mm 6 mps 746 mmHg 84%
    14:00 +2°C° 0.1 mm 6 mps 746 mmHg 83%
    15:00 +3°C° 0 mm 5 mps 746 mmHg 80%
    16:00 +3°C° 0.2 mm 5 mps 747 mmHg 81%
    17:00 +3°C° 0.2 mm 5 mps 747 mmHg 82%
    18:00 +2°C° 0.2 mm 5 mps 747 mmHg 83%
    19:00 +2°C° 0 mm 5 mps 748 mmHg 85%
    20:00 +1°C° 0 mm 4 mps 748 mmHg 86%
    21:00 0°C° 0 mm 4 mps 748 mmHg 88%
    22:00 0°C° 0 mm 4 mps 748 mmHg 89%
    23:00 0°C° 0 mm 4 mps 749 mmHg 91%

    Tomorrow, 24 September, Tuesday

    Time Temperature Precipitation Wind Pressure Humidity
    00:00 +1°C° 0 mm 3 mps 749 mmHg 92%
    01:00 +1°C° 0 mm 3 mps 749 mmHg 92%
    02:00 0°C° 0 mm 3 mps 750 mmHg 92%
    03:00 0°C° 0 mm 3 mps 750 mmHg 93%
    04:00 0°C° 0 mm 3 mps 750 mmHg 94%
    05:00 -1°C° 0 mm 3 mps 750 mmHg 95%
    06:00 -1°C° 0 mm 3 mps 750 mmHg 95%
    07:00 0°C° 0 mm 3 mps 750 mmHg 92%
    08:00 +1°C° 0 mm 3 mps 751 mmHg 89%
    09:00 +2°C° 0 mm 3 mps 751 mmHg 85%
    10:00 +3°C° 0.1 mm 3 mps 751 mmHg 79%
    11:00 +5°C° 0.1 mm 4 mps 751 mmHg 74%
    12:00 +6°C° 0.1 mm 4 mps 751 mmHg 68%
    13:00 +6°C° 0.3 mm 4 mps 751 mmHg 68%
    14:00 +6°C° 0.3 mm 4 mps 751 mmHg 68%
    15:00 +6°C° 0.3 mm 4 mps 751 mmHg 68%
    16:00 +5°C° 0.2 mm 3 mps 751 mmHg 74%
    17:00 +4°C° 0.2 mm 3 mps 751 mmHg 79%
    18:00 +4°C° 0.2 mm 2 mps 751 mmHg 84%
    19:00 +3°C° 0 mm 2 mps 751 mmHg 87%
    20:00 +4°C° 0 mm 1 mps 751 mmHg 90%
    21:00 +3°C° 0 mm 1 mps 751 mmHg 92%
    22:00 +2°C° 0 mm 1 mps 751 mmHg 92%
    23:00 +2°C° 0 mm 1 mps 751 mmHg 92%

    Day after tomorrow, 25 September, Wednesday

    Time Temperature Precipitation Wind Pressure Humidity
    00:00 +1°C° 0 mm 1 mps 751 mmHg 92%
    01:00 +1°C° 0 mm 1 mps 752 mmHg 92%
    02:00 +1°C° 0 mm 1 mps 752 mmHg 93%
    03:00 -2°C° 0 mm 2 mps 752 mmHg 93%
    04:00 -2°C° 0 mm 2 mps 752 mmHg 94%
    05:00 -2°C° 0 mm 2 mps 752 mmHg 95%
    06:00 -2°C° 0 mm 2 mps 752 mmHg 95%
    07:00 +1°C° 0 mm 2 mps 752 mmHg 90%
    08:00 +2°C° 0 mm 2 mps 753 mmHg 84%
    09:00 +4°C° 0 mm 2 mps 753 mmHg 78%
    10:00 +5°C° 0 mm 2 mps 753 mmHg 73%
    11:00 +5°C° 0 mm 3 mps 753 mmHg 68%
    12:00 +7°C° 0 mm 3 mps 753 mmHg 62%
    13:00 +7°C° 0.1 mm 3 mps 753 mmHg 62%
    14:00 +7°C° 0.1 mm 3 mps 753 mmHg 62%
    15:00 +7°C° 0.1 mm 3 mps 753 mmHg 62%
    16:00 +6°C° 0.1 mm 2 mps 753 mmHg 67%
    17:00 +5°C° 0.1 mm 2 mps 752 mmHg 73%
    18:00 +5°C° 0.1 mm 1 mps 752 mmHg 78%
    19:00 +4°C° 0 mm 1 mps 753 mmHg 81%
    20:00 +4°C° 0 mm 1 mps 753 mmHg 84%
    21:00 +3°C° 0 mm 1 mps 753 mmHg 87%
    22:00 +3°C° 0 mm 1 mps 753 mmHg 88%
    23:00 +3°C° 0 mm 1 mps 753 mmHg 89%

    26 September, Thursday

    Time Temperature Precipitation Wind Pressure Humidity
    00:00 +2°C° 0 mm 1 mps 753 mmHg 89%
    01:00 +2°C° 0 mm 1 mps 753 mmHg 91%
    02:00 +2°C° 0 mm 1 mps 753 mmHg 92%
    03:00 +2°C° 0 mm 1 mps 753 mmHg 93%
    04:00 +2°C° 0 mm 1 mps 753 mmHg 93%
    05:00 +1°C° 0 mm 1 mps 753 mmHg 94%
    06:00 +1°C° 0 mm 1 mps 753 mmHg 94%
    07:00 +3°C° 0 mm 1 mps 753 mmHg 86%
    08:00 +4°C° 0 mm 1 mps 753 mmHg 79%
    09:00 +5°C° 0 mm 2 mps 753 mmHg 71%
    10:00 +6°C° 0 mm 2 mps 753 mmHg 65%
    11:00 +7°C° 0 mm 2 mps 753 mmHg 59%
    12:00 +8°C° 0 mm 3 mps 753 mmHg 53%
    13:00 +8°C° 0 mm 3 mps 753 mmHg 54%
    14:00 +9°C° 0 mm 3 mps 753 mmHg 55%
    15:00 +9°C° 0 mm 3 mps 753 mmHg 56%
    16:00 +8°C° 0 mm 3 mps 753 mmHg 63%
    17:00 +6°C° 0 mm 2 mps 752 mmHg 70%
    18:00 +6°C° 0 mm 1 mps 752 mmHg 76%
    19:00 +5°C° 0 mm 1 mps 752 mmHg 79%
    20:00 +5°C° 0 mm 1 mps 752 mmHg 81%
    21:00 +4°C° 0 mm 1 mps 752 mmHg 83%
    22:00 +4°C° 0 mm 1 mps 752 mmHg 86%
    23:00 +3°C° 0 mm 2 mps 752 mmHg 89%

    27 September, Friday

    Time Temperature Precipitation Wind Pressure Humidity
    00:00 +2°C° 0 mm 2 mps 752 mmHg 91%
    01:00 +2°C° 0 mm 2 mps 752 mmHg 92%
    02:00 +2°C° 0 mm 2 mps 752 mmHg 92%
    03:00 +2°C° 0 mm 2 mps 752 mmHg 92%
    04:00 +2°C° 0 mm 2 mps 752 mmHg 93%
    05:00 +1°C° 0 mm 2 mps 752 mmHg 94%
    06:00 +1°C° 0 mm 2 mps 751 mmHg 95%
    07:00 +2°C° 0 mm 3 mps 751 mmHg 88%
    08:00 +3°C° 0 mm 3 mps 751 mmHg 82%
    09:00 +5°C° 0 mm 3 mps 751 mmHg 75%
    10:00 +6°C° 0 mm 4 mps 751 mmHg 71%
    11:00 +7°C° 0 mm 4 mps 751 mmHg 66%
    12:00 +8°C° 0 mm 5 mps 751 mmHg 62%
    13:00 +7°C° 0.2 mm 4 mps 750 mmHg 69%
    14:00 +6°C° 0.2 mm 4 mps 750 mmHg 76%
    15:00 +5°C° 0.2 mm 4 mps 750 mmHg 83%
    16:00 +5°C° 0 mm 3 mps 750 mmHg 86%
    17:00 +5°C° 0 mm 3 mps 750 mmHg 89%
    18:00 +6°C° 0 mm 2 mps 750 mmHg 91%
    19:00 +6°C° 0 mm 2 mps 750 mmHg 92%
    20:00 +6°C° 0 mm 2 mps 751 mmHg 93%
    21:00 +5°C° 0 mm 2 mps 751 mmHg 94%
    22:00 +6°C° 0 mm 2 mps 751 mmHg 94%
    23:00 +6°C° 0 mm 2 mps 751 mmHg 95%

    28 September, Saturday

    Time Temperature Precipitation Wind Pressure Humidity
    00:00 +6°C° 0 mm 2 mps 752 mmHg 95%
    01:00 +5°C° 0 mm 2 mps 752 mmHg 95%
    02:00 +5°C° 0 mm 2 mps 752 mmHg 95%
    03:00 +5°C° 0 mm 2 mps 752 mmHg 95%
    04:00 +4°C° 0 mm 2 mps 753 mmHg 95%
    05:00 +3°C° 0 mm 2 mps 753 mmHg 96%
    06:00 +2°C° 0 mm 2 mps 753 mmHg 96%
    07:00 +3°C° 0 mm 2 mps 753 mmHg 90%
    08:00 +4°C° 0 mm 2 mps 753 mmHg 85%
    09:00 +5°C° 0 mm 2 mps 754 mmHg 80%
    10:00 +6°C° 0 mm 2 mps 754 mmHg 73%
    11:00 +7°C° 0 mm 2 mps 754 mmHg 66%
    12:00 +8°C° 0 mm 3 mps 755 mmHg 59%
    13:00 +8°C° 0 mm 3 mps 754 mmHg 59%
    14:00 +9°C° 0 mm 3 mps 754 mmHg 59%
    15:00 +9°C° 0 mm 3 mps 754 mmHg 59%
    16:00 +8°C° 0 mm 3 mps 754 mmHg 63%
    17:00 +7°C° 0 mm 3 mps 755 mmHg 67%
    18:00 +6°C° 0 mm 2 mps 755 mmHg 71%
    19:00 +5°C° 0 mm 2 mps 755 mmHg 74%
    20:00 +4°C° 0 mm 2 mps 755 mmHg 78%
    21:00 +3°C° 0 mm 2 mps 755 mmHg 82%
    22:00 +4°C° 0 mm 1 mps 755 mmHg 79%
    23:00 +4°C° 0 mm 1 mps 755 mmHg 77%
    Show more